EW6810 Weather Reports


Display with metric or nautical units.
time (UTC)temp
F
wind
direction
speed
MPH
gust
MPH
rain 1hr
in
rain 24hr
in
rain mn
in
humidity
%
barometer
mb
20260508065036 55 218 0.0 0.0 0.00 0.00 0.00 77 1013.2
20260508064536 55 218 0.0 0.0 0.00 0.00 0.00 77 1013.2
20260508064036 55 218 0.0 2.0 0.00 0.00 0.00 77 1013.3
20260508063536 55 218 0.0 2.0 0.00 0.00 0.00 77 1013.3
20260508063037 55 214 0.0 1.0 0.00 0.00 0.00 77 1013.3
20260508062536 56 214 0.0 1.0 0.00 0.00 0.00 77 1013.3
20260508062036 56 214 0.0 1.0 0.00 0.00 0.00 77 1013.2
20260508061537 56 214 0.0 1.0 0.00 0.00 0.00 78 1013.2
20260508061035 56 214 0.0 1.0 0.00 0.00 0.00 78 1013.2
20260508060535 56 214 0.0 1.0 0.00 0.00 0.00 78 1013.3
20260508060137 56 214 0.0 1.0 0.00 0.00 0.00 78 1013.2
20260508055534 56 214 0.0 1.0 0.00 0.00 0.00 78 1013.2
20260508055034 56 214 0.0 2.0 0.00 0.00 0.00 77 1013.1
20260508054541 56 214 0.0 3.0 0.00 0.00 0.00 77 1013.1
20260508054037 56 261 1.0 3.0 0.00 0.00 0.00 77 1013.0
20260508053534 56 250 0.0 2.0 0.00 0.00 0.00 76 1013.0
20260508053034 56 250 0.0 2.0 0.00 0.00 0.00 76 1013.0
20260508052534 56 250 0.0 2.0 0.00 0.00 0.00 76 1013.0
20260508052036 57 250 0.0 3.0 0.00 0.00 0.00 76 1013.0
20260508051533 57 249 1.0 3.0 0.00 0.00 0.00 76 1012.9
20260508051034 57 55 0.0 2.0 0.00 0.00 0.00 75 1012.8
20260508050634 57 55 0.0 2.0 0.00 0.00 0.00 75 1012.9
20260508050052 57 55 0.0 2.0 0.00 0.00 0.00 75 1013.0
20260508045553 57 55 0.0 2.0 0.00 0.00 0.00 76 1013.1
20260508045057 57 55 0.0 3.0 0.00 0.00 0.00 75 1013.1
20260508044652 57 57 0.0 3.0 0.00 0.00 0.00 75 1013.0
20260508044055 57 49 0.0 2.0 0.00 0.00 0.00 75 1013.1
20260508043555 57 46 1.0 3.0 0.00 0.00 0.00 75 1013.1
20260508043057 57 41 1.0 3.0 0.00 0.00 0.00 75 1013.1
20260508042551 57 34 0.0 2.0 0.00 0.00 0.00 75 1013.1
20260508042051 58 34 0.0 2.0 0.00 0.00 0.00 75 1013.1
20260508041554 57 34 1.0 2.0 0.00 0.00 0.00 75 1013.1
20260508041052 57 167 0.0 0.0 0.00 0.00 0.00 75 1013.2
20260508040652 57 167 0.0 0.0 0.00 0.00 0.00 75 1013.0
20260508040043 57 167 0.0 0.0 0.00 0.00 0.00 76 1013.0
20260508035544 58 167 0.0 0.0 0.00 0.00 0.00 76 1013.0
20260508035045 58 167 0.0 1.0 0.00 0.00 0.00 75 1013.0
20260508034552 58 167 0.0 1.0 0.00 0.00 0.00 75 1013.0
20260508034043 58 167 0.0 1.0 0.00 0.00 0.00 75 1013.0
20260508033543 58 167 0.0 1.0 0.00 0.00 0.00 74 1013.1
20260508033043 58 167 0.0 1.0 0.00 0.00 0.00 74 1013.0
20260508032544 58 167 0.0 1.0 0.00 0.00 0.00 73 1013.0
20260508032042 58 167 0.0 2.0 0.00 0.00 0.00 73 1012.9
20260508031542 58 167 0.0 2.0 0.00 0.00 0.00 72 1012.9
20260508031041 59 167 0.0 1.0 0.00 0.00 0.00 71 1013.0
20260508030641 59 167 0.0 0.0 0.00 0.00 0.00 70 1013.1
20260508030046 58 167 0.0 0.0 0.00 0.00 0.00 70 1013.0
20260508025543 59 167 0.0 0.0 0.00 0.00 0.00 70 1013.0
20260508025041 59 167 0.0 1.0 0.00 0.00 0.00 69 1013.1
20260508024545 59 167 0.0 1.0 0.00 0.00 0.00 68 1013.1
20260508024039 59 167 0.0 1.0 0.00 0.00 0.00 66 1013.2
20260508023541 59 167 0.0 1.0 0.00 0.00 0.00 67 1013.3
20260508023039 59 167 0.0 1.0 0.00 0.00 0.00 69 1013.3
20260508022539 59 167 0.0 2.0 0.00 0.00 0.00 67 1013.3
20260508022039 59 167 0.0 3.0 0.00 0.00 0.00 68 1013.2
20260508021641 59 167 1.0 3.0 0.00 0.00 0.00 66 1013.2
20260508021040 59 169 0.0 2.0 0.00 0.00 0.00 67 1013.3
20260508020638 59 169 0.0 3.0 0.00 0.00 0.00 68 1013.3
20260508020047 59 169 1.0 4.0 0.00 0.00 0.00 66 1013.3
20260508015543 60 277 1.0 4.0 0.00 0.00 0.00 66 1013.4
20260508015042 60 211 1.0 6.0 0.00 0.00 0.00 66 1013.3
20260508014540 60 211 1.0 6.0 0.00 0.00 0.00 65 1013.4
20260508014039 61 140 0.0 3.0 0.00 0.00 0.00 67 1013.5
20260508013538 61 198 0.0 3.0 0.00 0.00 0.00 67 1013.6
20260508013141 61 198 0.0 6.0 0.00 0.00 0.00 65 1013.6
20260508012037 62 101 1.0 5.0 0.00 0.00 0.00 64 1013.5
20260508011542 62 152 0.0 5.0 0.00 0.00 0.00 65 1013.6
20260508011036 62 214 2.0 6.0 0.00 0.00 0.00 63 1013.6
20260508010637 62 209 2.0 6.0 0.00 0.00 0.00 62 1013.7
20260508010036 61 161 1.0 5.0 0.00 0.00 0.00 63 1013.8
20260508005539 62 182 1.0 4.0 0.00 0.00 0.00 62 1013.8
20260508005034 62 129 1.0 4.0 0.00 0.00 0.00 64 1013.9
20260508004537 62 183 1.0 4.0 0.00 0.00 0.00 64 1013.9
20260508004034 61 132 0.0 3.0 0.00 0.00 0.00 67 1014.0
20260508003533 61 181 0.0 6.0 0.00 0.00 0.00 66 1014.1
20260508003032 61 139 1.0 6.0 0.00 0.00 0.00 63 1014.1
20260508002533 62 169 1.0 4.0 0.00 0.00 0.00 65 1014.2
20260508002033 61 339 1.0 6.0 0.00 0.00 0.00 68 1014.2
20260508001533 60 143 0.0 6.0 0.00 0.00 0.00 68 1014.2
20260508001033 60 169 2.0 5.0 0.00 0.00 0.00 67 1014.2
20260508000634 61 149 0.0 6.0 0.00 0.00 0.00 68 1014.1
20260508000027 61 55 0.0 6.0 0.00 0.00 0.00 69 1014.1
20260507235528 60 96 2.0 6.0 0.00 0.00 0.00 68 1014.0
20260507235027 61 93 1.0 6.0 0.00 0.00 0.00 68 1014.1
20260507234528 60 194 1.0 4.0 0.00 0.00 0.00 69 1014.1
20260507234026 60 75 0.0 4.0 0.00 0.00 0.00 69 1014.2
20260507233543 60 130 1.0 4.0 0.00 0.00 0.00 68 1014.1
20260507233043 61 132 1.0 4.0 0.00 0.00 0.00 67 1014.2
20260507232542 61 219 1.0 6.0 0.00 0.00 0.00 68 1014.2
20260507232041 62 19 1.0 6.0 0.00 0.00 0.00 67 1014.1
20260507231548 62 194 2.0 5.0 0.00 0.00 0.00 67 1014.3
20260507231042 62 178 2.0 8.0 0.00 0.00 0.00 66 1014.3
20260507230540 61 84 2.0 10.0 0.00 0.00 0.00 67 1014.2
20260507230041 62 219 2.0 10.0 0.00 0.00 0.00 65 1014.4
20260507225540 63 341 2.0 7.0 0.00 0.00 0.00 66 1014.4
20260507225040 65 32 2.0 5.0 0.00 0.00 0.00 62 1014.4
20260507224539 65 180 1.0 7.0 0.00 0.00 0.00 65 1014.4
20260507224039 64 125 3.0 7.0 0.00 0.00 0.00 64 1014.4
20260507223539 65 167 1.0 5.0 0.00 0.00 0.00 64 1014.4
20260507223038 64 123 3.0 11.0 0.00 0.00 0.00 63 1014.4
20260507222637 65 116 3.0 11.0 0.00 0.00 0.00 63 1014.4
20260507222035 65 75 2.0 4.0 0.00 0.00 0.00 64 1014.5
20260507221534 64 321 1.0 4.0 0.00 0.00 0.00 65 1014.5
20260507221035 64 120 1.0 4.0 0.00 0.00 0.00 67 1014.6
20260507220532 63 184 2.0 4.0 0.00 0.00 0.00 66 1014.6
20260507220032 63 140 1.0 4.0 0.00 0.00 0.00 66 1014.8
20260507215534 63 64 1.0 5.0 0.00 0.00 0.00 65 1014.9
20260507215030 63 184 2.0 5.0 0.00 0.00 0.00 67 1014.9
20260507214532 63 172 1.0 6.0 0.00 0.00 0.00 67 1015.0
20260507214028 63 147 1.0 6.0 0.00 0.00 0.00 68 1015.0
20260507213528 62 140 1.0 5.0 0.00 0.00 0.00 69 1015.1
20260507213029 63 57 1.0 5.0 0.00 0.00 0.00 67 1015.1
20260507212526 63 157 1.0 6.0 0.00 0.00 0.00 67 1015.2
20260507212024 62 191 2.0 8.0 0.00 0.00 0.00 69 1015.2
20260507211525 61 19 1.0 8.0 0.00 0.00 0.00 69 1015.3
20260507211023 62 175 2.0 5.0 0.00 0.00 0.00 69 1015.3
20260507210525 62 169 2.0 6.0 0.00 0.00 0.00 71 1015.4
20260507210023 61 176 0.0 6.0 0.00 0.00 0.00 71 1015.4
20260507205520 60 157 2.0 5.0 0.00 0.00 0.00 74 1015.6
20260507205022 60 353 0.0 3.0 0.00 0.00 0.00 76 1015.6
20260507204519 59 154 1.0 6.0 0.00 0.00 0.00 76 1015.7
20260507204017 59 132 2.0 6.0 0.00 0.00 0.00 75 1015.7
20260507203516 60 17 0.0 5.0 0.00 0.00 0.00 76 1015.8
20260507203014 60 17 1.0 5.0 0.00 0.00 0.00 74 1016.0
20260507202513 60 280 1.0 4.0 0.00 0.00 0.00 77 1015.9
20260507202012 59 229 1.0 6.0 0.00 0.00 0.00 77 1016.0
20260507201515 58 229 0.0 3.0 0.00 0.00 0.00 78 1016.1
20260507201010 58 231 0.0 4.0 0.00 0.00 0.00 77 1016.1
20260507200509 57 132 1.0 4.0 0.00 0.00 0.00 79 1016.2
20260507200009 57 164 1.0 4.0 0.00 0.00 0.00 78 1016.2
20260507195507 57 154 0.0 3.0 0.00 0.00 0.00 80 1016.3
20260507195007 56 153 1.0 7.0 0.00 0.00 0.00 80 1016.2
20260507194507 56 44 0.0 7.0 0.00 0.00 0.00 81 1016.3
20260507194004 56 32 0.0 3.0 0.00 0.00 0.00 83 1016.3
20260507193505 55 153 0.0 3.0 0.00 0.00 0.00 83 1016.5
20260507193003 55 170 0.0 3.0 0.00 0.00 0.00 83 1016.5
20260507192502 55 170 0.0 4.0 0.00 0.00 0.00 84 1016.5
20260507192004 55 50 1.0 4.0 0.00 0.00 0.00 85 1016.5
20260507191502 55 111 0.0 3.0 0.00 0.00 0.00 84 1016.5
20260507191002 55 125 0.0 5.0 0.00 0.00 0.00 85 1016.5
20260507190502 55 46 0.0 5.0 0.00 0.00 0.00 84 1016.5
20260507190002 55 63 1.0 5.0 0.00 0.00 0.00 86 1016.5
20260507185500 54 209 0.0 4.0 0.00 0.00 0.00 86 1016.6
20260507185000 54 209 0.0 4.0 0.00 0.00 0.00 86 1016.6
20260507184502 54 143 0.0 3.0 0.00 0.00 0.00 86 1016.6
20260507184100 54 142 1.0 3.0 0.00 0.00 0.00 86 1016.6
20260507183602 54 46 0.0 3.0 0.00 0.00 0.00 87 1016.6
20260507183106 54 101 0.0 4.0 0.00 0.00 0.00 86 1016.6
20260507182600 54 66 1.0 4.0 0.00 0.00 0.00 86 1016.6
20260507182202 54 255 0.0 3.0 0.00 0.00 0.00 85 1016.7
20260507181559 54 129 0.0 3.0 0.00 0.00 0.00 85 1016.7
20260507181059 54 130 0.0 3.0 0.00 0.00 0.00 84 1016.7
20260507180602 54 92 0.0 3.0 0.00 0.00 0.00 85 1016.8
20260507180058 54 92 1.0 3.0 0.00 0.00 0.00 84 1016.8
20260507175600 55 148 0.0 3.0 0.00 0.00 0.00 85 1016.8
20260507175057 54 188 1.0 3.0 0.00 0.00 0.00 87 1016.9
20260507174606 54 140 0.0 3.0 0.00 0.00 0.00 87 1016.9
20260507174059 54 136 1.0 3.0 0.00 0.00 0.00 88 1016.9
20260507173557 54 14 0.0 3.0 0.00 0.00 0.00 89 1017.0
20260507173100 53 128 1.0 3.0 0.00 0.00 0.00 90 1017.0
20260507172556 52 101 0.0 2.0 0.00 0.00 0.00 90 1017.0
20260507172053 52 101 0.0 2.0 0.00 0.00 0.00 91 1017.0
20260507171607 52 63 0.0 2.0 0.00 0.00 0.00 92 1017.0
20260507171049 51 63 0.0 2.0 0.00 0.00 0.00 92 1017.1
20260507170651 51 63 0.0 2.0 0.00 0.00 0.00 91 1017.1
20260507170038 51 61 0.0 2.0 0.00 0.00 0.00 91 1017.1
20260507165536 51 61 0.0 2.0 0.00 0.00 0.00 91 1017.2
20260507165035 51 61 0.0 2.0 0.00 0.00 0.00 91 1017.2
20260507164546 51 61 1.0 2.0 0.00 0.00 0.00 91 1017.2
20260507164035 51 60 0.0 2.0 0.00 0.00 0.00 91 1017.2
20260507163534 51 60 0.0 2.0 0.00 0.00 0.00 91 1017.1
20260507163033 51 258 0.0 2.0 0.00 0.00 0.00 91 1017.1
20260507162534 51 258 0.0 2.0 0.00 0.00 0.00 91 1017.1
20260507162134 51 258 0.0 2.0 0.00 0.00 0.00 92 1017.1
20260507161540 51 258 0.0 2.0 0.00 0.00 0.00 92 1017.1
20260507161033 51 258 0.0 2.0 0.00 0.00 0.00 92 1017.1
20260507160504 51 259 0.0 2.0 0.00 0.00 0.00 92 1017.2
20260507160002 51 259 0.0 2.0 0.00 0.00 0.00 92 1017.1
20260507155501 51 256 0.0 2.0 0.00 0.00 0.00 91 1017.1
20260507155004 51 256 0.0 3.0 0.00 0.00 0.00 91 1017.1
20260507154601 51 256 0.0 3.0 0.00 0.00 0.00 91 1017.1
20260507154059 51 256 1.0 2.0 0.00 0.00 0.00 91 1017.1
20260507153601 51 260 0.0 2.0 0.00 0.00 0.00 91 1017.1
20260507153100 51 261 0.0 0.0 0.00 0.00 0.00 91 1017.0
20260507152600 51 261 0.0 0.0 0.00 0.00 0.00 91 1017.0
20260507152100 51 261 0.0 0.0 0.00 0.00 0.00 91 1017.1
20260507151558 51 261 0.0 0.0 0.00 0.00 0.00 91 1017.0
20260507151057 51 261 0.0 0.0 0.00 0.00 0.00 91 1017.1
20260507150557 51 261 0.0 0.0 0.00 0.00 0.00 91 1017.2
20260507150103 51 261 0.0 0.0 0.00 0.00 0.00 91 1017.3
20260507145555 51 261 0.0 0.0 0.00 0.00 0.00 91 1017.2
20260507145054 51 261 0.0 0.0 0.00 0.00 0.00 91 1017.2
20260507144554 51 261 0.0 0.0 0.00 0.00 0.00 91 1017.2
20260507144053 51 261 0.0 0.0 0.00 0.00 0.00 91 1017.2
20260507143555 51 261 0.0 0.0 0.00 0.00 0.00 91 1017.2
20260507143100 51 261 0.0 0.0 0.00 0.00 0.00 91 1017.3
20260507142552 51 261 0.0 0.0 0.00 0.00 0.00 91 1017.2
20260507142051 51 261 0.0 0.0 0.00 0.00 0.00 90 1017.2
20260507141556 51 261 0.0 0.0 0.00 0.00 0.00 90 1017.2
20260507141051 51 261 0.0 0.0 0.00 0.00 0.00 90 1017.1
20260507140551 51 261 0.0 0.0 0.00 0.00 0.00 90 1017.0
20260507140049 51 261 0.0 0.0 0.00 0.00 0.00 90 1017.0
20260507135549 51 261 0.0 0.0 0.00 0.00 0.00 90 1017.0
20260507135048 51 261 0.0 0.0 0.00 0.00 0.00 90 1017.0
20260507134554 51 261 0.0 0.0 0.00 0.00 0.00 89 1017.0
20260507134047 51 261 0.0 0.0 0.00 0.00 0.00 89 1017.0
20260507133547 51 261 0.0 1.0 0.00 0.00 0.00 89 1017.0
20260507133047 51 261 0.0 1.0 0.00 0.00 0.00 89 1017.0
20260507132546 51 261 0.0 0.0 0.00 0.00 0.00 89 1017.0
20260507132048 51 261 0.0 0.0 0.00 0.00 0.00 89 1016.9
20260507131546 51 261 0.0 0.0 0.00 0.00 0.00 88 1016.9
20260507131049 52 261 0.0 0.0 0.00 0.00 0.00 88 1016.9
20260507130550 52 261 0.0 0.0 0.00 0.00 0.00 88 1016.9
20260507130045 52 261 0.0 0.0 0.00 0.00 0.00 88 1016.9
20260507125546 52 261 0.0 0.0 0.00 0.00 0.00 88 1016.9
20260507125044 52 261 0.0 0.0 0.00 0.00 0.00 88 1016.9
20260507124545 52 261 0.0 0.0 0.00 0.00 0.00 88 1016.8
20260507124047 52 261 0.0 0.0 0.00 0.00 0.00 88 1016.9
20260507123544 52 262 0.0 0.0 0.00 0.00 0.00 88 1016.8
20260507123044 52 262 0.0 0.0 0.00 0.00 0.00 88 1016.8
20260507122547 52 262 0.0 0.0 0.00 0.00 0.00 88 1016.8
20260507122046 52 262 0.0 0.0 0.00 0.00 0.00 88 1016.8
20260507121543 52 262 0.0 0.0 0.00 0.00 0.00 88 1016.8
20260507121047 52 262 0.0 0.0 0.00 0.00 0.00 88 1016.8
20260507120542 52 262 0.0 0.0 0.00 0.00 0.00 88 1016.9
20260507120042 52 262 0.0 0.0 0.00 0.00 0.00 88 1016.9
20260507115543 52 262 0.0 0.0 0.00 0.00 0.00 88 1017.0
20260507115042 52 262 0.0 0.0 0.00 0.00 0.00 88 1017.1
20260507114542 52 262 0.0 0.0 0.00 0.00 0.00 88 1017.1
20260507114043 52 186 0.0 0.0 0.00 0.00 0.00 88 1017.2
20260507113542 52 186 0.0 0.0 0.00 0.00 0.00 88 1017.2
20260507113040 52 186 0.0 0.0 0.00 0.00 0.00 88 1017.1
20260507112540 52 186 0.0 0.0 0.00 0.00 0.00 87 1017.0
20260507112040 52 186 0.0 0.0 0.00 0.00 0.00 87 1017.1
20260507111540 52 186 0.0 0.0 0.00 0.00 0.00 87 1017.1
20260507111039 52 186 0.0 0.0 0.00 0.00 0.00 87 1017.1
20260507110539 52 186 0.0 0.0 0.00 0.00 0.00 87 1017.0
20260507110048 52 186 0.0 1.0 0.00 0.00 0.00 87 1017.0
20260507105538 52 186 0.0 1.0 0.00 0.00 0.00 87 1017.0
20260507105038 52 186 0.0 2.0 0.00 0.00 0.00 87 1017.0
20260507104538 52 186 0.0 2.0 0.00 0.00 0.00 87 1017.0
20260507104038 52 186 0.0 2.0 0.00 0.00 0.00 87 1017.0
20260507103537 52 186 0.0 3.0 0.00 0.00 0.00 87 1017.0
20260507103037 52 186 0.0 3.0 0.00 0.00 0.00 87 1017.0
20260507102536 52 67 0.0 2.0 0.00 0.00 0.00 87 1017.1
20260507102036 52 65 0.0 2.0 0.00 0.00 0.00 87 1017.0
20260507101542 52 64 0.0 2.0 0.00 0.00 0.00 87 1016.9
20260507101035 52 64 0.0 0.0 0.00 0.00 0.00 87 1016.9
20260507100535 52 64 0.0 0.0 0.00 0.00 0.00 87 1016.8
20260507100009 52 64 0.0 0.0 0.00 0.00 0.00 87 1016.7
20260507095509 52 64 0.0 0.0 0.00 0.00 0.00 87 1016.8
20260507095009 52 64 0.0 0.0 0.00 0.00 0.00 87 1016.8
20260507094508 52 64 0.0 0.0 0.00 0.00 0.00 87 1016.9
20260507094007 52 64 0.0 1.0 0.00 0.00 0.00 87 1016.9
20260507093508 52 64 0.0 1.0 0.00 0.00 0.00 86 1017.0
20260507093007 52 64 0.0 1.0 0.00 0.00 0.00 87 1017.0
20260507092507 53 64 0.0 1.0 0.00 0.00 0.00 87 1016.9
20260507092006 52 64 0.0 1.0 0.00 0.00 0.00 86 1017.0
20260507091506 52 64 0.0 0.0 0.00 0.00 0.00 86 1017.0
20260507091008 52 64 0.0 1.0 0.00 0.00 0.00 86 1017.0
20260507090507 52 64 0.0 1.0 0.00 0.00 0.00 86 1016.9
20260507090006 52 64 0.0 1.0 0.00 0.00 0.00 87 1016.9
20260507085504 53 64 0.0 1.0 0.00 0.00 0.00 86 1016.9
20260507085004 52 64 0.0 1.0 0.00 0.00 0.00 86 1016.9
20260507084504 52 64 0.0 1.0 0.00 0.00 0.00 86 1016.9
20260507084005 53 64 0.0 0.0 0.00 0.00 0.00 86 1016.8
20260507083503 53 64 0.0 0.0 0.00 0.00 0.00 86 1016.9
20260507083004 53 64 0.0 0.0 0.00 0.00 0.00 86 1016.8
20260507082503 53 64 0.0 0.0 0.00 0.00 0.00 86 1016.8
20260507082002 52 64 0.0 0.0 0.00 0.00 0.00 86 1016.7
20260507081506 53 64 0.0 0.0 0.00 0.00 0.00 86 1016.7
20260507081013 53 64 0.0 0.0 0.00 0.00 0.00 86 1016.7
20260507080516 53 64 0.0 0.0 0.00 0.00 0.00 86 1016.7
20260507080012 53 64 0.0 0.0 0.00 0.00 0.00 86 1016.6
20260507075511 53 64 0.0 0.0 0.00 0.00 0.00 86 1016.6
20260507075012 53 64 0.0 0.0 0.00 0.00 0.00 86 1016.6
20260507074524 53 64 0.0 0.0 0.00 0.00 0.00 86 1016.6
20260507074011 53 64 0.0 0.0 0.00 0.00 0.00 86 1016.6
20260507073510 53 64 0.0 0.0 0.00 0.00 0.00 86 1016.6
20260507073010 53 64 0.0 0.0 0.00 0.00 0.00 86 1016.5
20260507072510 53 64 0.0 0.0 0.00 0.00 0.00 86 1016.5
20260507072011 53 0.0 0.0 0.00 0.00 0.00 86 1016.4
20260507071506 53 64 0.0 0.0 0.00 0.00 0.00 86 1016.5
20260507071123 53 64 0.0 0.0 0.00 0.00 0.00 86 1016.4
20260507070545 53 64 0.0 0.0 0.00 0.00 0.00 86 1016.4
20260507070057 53 64 0.0 0.0 0.00 0.00 0.00 85 1016.4
20260507065543 53 64 0.0 0.0 0.00 0.00 0.00 85 1016.4